#timestamp,LO_Frequency,Hit,StdDev 
1549000815.1,286046999.5,N
1549000835.9,286046998.4,N
1549000855.7,286046999.1,N
1549000875.6,286046996.8,N
1549000895.4,286046996.5,N
1549000915.2,286046999.5,N
1549000935.1,286046998.9,N
1549000936.0,286046998.9,N
1549000955.8,286047000.7,N
1549000975.7,286047000.8,N
1549000995.5,286047001.0,N
1549001015.3,286046999.9,N
1549001035.2,286047001.0,N
1549001055.0,286046998.3,N
1549001055.9,286046998.3,N
1549001075.7,286047001.2,N
1549001095.6,286046998.7,N
1549001115.4,286046998.2,N
1549001135.3,286047000.7,N
1549001155.1,286047000.2,N
1549001175.8,286046998.2,N
1549001195.7,286046998.3,N
1549001215.5,286046996.7,N
1549001235.4,286046999.5,N
1549001255.2,286046997.0,N
1549001275.0,286046999.4,N
1549001275.9,286046999.4,N
1549001295.8,286046998.6,N
1549001315.6,286047001.2,N
1549001335.4,286047001.2,N
1549001355.3,286046998.2,N
1549001375.1,286047000.9,N
1549001395.9,286047000.7,N
1549001415.7,286047000.1,N
1549001435.5,286047000.0,N
1549001455.4,286047001.0,N
1549001475.2,286046998.4,N
1549001495.0,286046999.1,N
1549001495.9,286046999.1,N
1549001515.8,286046998.5,N
1549001535.6,286046999.3,N
1549001555.5,286046998.3,N
1549001575.3,286047001.1,N
1549001595.1,286046998.6,N
1549001615.9,286046998.6,N
1549001635.7,286046998.3,N
1549001655.5,286046997.0,N
1549001675.4,286046999.2,N
1549001695.2,286046999.1,N
1549001715.1,286046996.6,N
1549001716.0,286046996.6,N
1549001735.8,286046996.9,N
1549001755.6,286046996.8,N
1549001775.5,286046998.7,N
1549001795.3,286046998.3,N
1549001815.1,286046998.2,N
1549001835.9,286047000.9,N
1549001855.7,286047000.8,N
1549001875.6,286047001.0,N
1549001895.4,286046998.5,N
1549001915.2,286046996.5,N
1549001935.1,286046999.3,N
1549001936.0,286046999.3,N
1549001955.8,286046998.1,N
1549001975.6,286046998.5,N
1549001995.5,286046999.5,N
1549002015.3,286046996.5,N
1549002035.2,286046998.9,N
1549002055.9,286047001.2,N
1549002075.7,286046998.2,N
1549002095.6,286047001.1,N
1549002115.4,286046998.8,N
1549002135.3,286046999.2,N
1549002155.1,286046997.0,N
1549002156.0,286046997.0,N
1549002175.8,286046999.1,N
1549002195.7,286046998.9,N
1549002215.5,286046996.9,N
1549002235.3,286046997.1,N
1549002255.2,286046997.4,N
1549002275.0,286046997.5,N
1549002275.9,286046997.5,N
1549002295.8,286046995.4,Y
1549002315.6,286046998.9,P
1549002335.4,286046998.8,P
1549002355.3,286047000.7,P
1549002375.1,286046998.5,N
1549002395.9,286046998.4,N
1549002415.7,286046998.4,N
1549002435.5,286046998.9,N
1549002455.4,286046996.6,Y
1549002475.2,286046999.4,P
1549002495.0,286046997.7,P
1549002496.0,286046997.7,P
1549002515.8,286046997.3,Y
1549002535.6,286046996.7,P
1549002555.5,286046996.9,P
1549002575.3,286046996.7,P
1549002595.1,286046996.7,Y
1549002615.9,286047000.7,P
1549002635.7,286047000.2,N
1549002655.6,286047001.7,N
1549002675.4,286047005.7,Y
1549002695.2,286047006.5,P
1549002715.1,286047008.9,N
1549002716.0,286047008.9,N
1549002735.8,286047006.2,N
1549002755.7,286047006.3,N
1549002775.5,286047009.0,N
1549002795.3,286047006.1,N
1549002815.2,286047006.7,N
1549002835.0,286047006.9,N
1549002835.9,286047006.9,N
1549002855.7,286047006.8,N
1549002875.6,286047007.3,Y
1549002895.4,286047001.2,P
1549002915.3,286046999.2,N
1549002935.1,286046997.9,N
1549002955.8,286046995.3,N
1549002975.7,286046996.2,N
1549002995.5,286046993.5,N
1549003015.4,286046996.4,N
1549003035.2,286046993.7,N
1549003055.0,286046996.0,N
1549003055.9,286046996.0,N
1549003075.8,286046998.0,N
1549003095.6,286046995.1,N
1549003115.5,286046995.0,N
1549003135.3,286046995.3,N
1549003155.1,286046995.4,N
1549003175.9,286046994.9,N
1549003195.7,286046995.5,N
1549003215.5,286046997.9,N
1549003235.4,286046995.7,N
1549003255.2,286046997.1,N
1549003275.2,286046998.6,N
1549003295.0,286046998.5,N
1549003295.9,286046998.5,N
1549003315.8,286046999.5,N
1549003335.6,286046997.1,N
1549003355.5,286046995.0,N
1549003375.3,286046995.0,N
1549003395.1,286046997.6,N
1549003415.9,286046997.7,N
1549003435.7,286046996.8,N
1549003455.5,286046996.7,N
1549003475.4,286046997.7,N
1549003495.2,286046996.5,N
1549003515.1,286046999.6,N
1549003516.0,286046999.6,N
1549003535.8,286046996.8,N
1549003555.6,286046997.1,N
1549003575.5,286046998.0,N
1549003595.3,286046995.2,Y
1549003615.2,286046996.6,P
1549003635.0,286046998.6,P
1549003665.9,286046998.4,E
1549003675.9,286047000.9,N
1549003695.7,286047002.5,P
1549003715.5,286047000.2,N
1549003735.4,286047000.2,N
1549003755.2,286047002.5,N
1549003775.1,286047002.5,N
1549003776.0,286047002.5,N
1549003795.8,286047000.1,N
1549003815.6,286047001.8,N
1549003835.5,286047002.3,N
1549003855.3,286047002.0,N
1549003875.2,286047000.1,N
1549003895.9,286047002.4,N
1549003915.7,286047002.4,N
1549003935.6,286047002.3,N
1549003955.4,286046998.1,N
1549003975.2,286046999.3,N
1549003995.1,286046999.3,N
1549003996.0,286046999.3,N
1549004015.8,286046997.2,N
1549004035.7,286046999.1,N
1549004055.5,286046998.9,N
1549004075.3,286046998.2,N
1549004095.2,286047001.2,N
1549004115.0,286046999.3,N
1549004115.9,286046999.3,N
1549004135.7,286046997.1,N
1549004155.6,286046996.9,N
1549004175.4,286046996.7,N
1549004195.3,286046996.5,N
1549004215.1,286046999.5,N
1549004235.8,286046997.2,N
1549004255.7,286046995.3,N
1549004275.5,286046995.6,N
1549004295.4,286046994.9,N
1549004315.1,286046999.2,N
1549004335.9,286046999.6,N
1549004355.4,286046997.0,N
1549004375.2,286046998.0,N
1549004395.0,286046995.1,N
1549004395.9,286046995.1,N
